TGL66PC LFQQ-LFLL

Flight info

Callsign TGL66PC
Flight time 1h 1m
Altitude 29000
Route VERMA T372 LESDO DCT KOVIN DCT CLM DCT VEZAQ UL194 ODEBU UL612 OGULO DCT OKASI/N0426F270 DCT OKEKO DCT OKEPI DCT MOU/N0380F190 A3 FEDZI
Aircraft A320/M-SDE3FGHIRWY/LB1

Departure

Time 2026-04-28 13:05
Airport Lille Airport (LFQQ)

Arrival

Time 2026-04-28 14:06
Airport Lyon Saint-Exupéry Airport (LFLL)
Time Latitude Longitude Altitude Speed Heading
2026-04-28 12:27 50.57109 3.10609 159 ft 0 kts 347°
2026-04-28 12:53 50.57093 3.10614 185 ft 4 kts 348°
2026-04-28 12:54 50.57066 3.10621 158 ft 4 kts 354°
2026-04-28 12:54 50.57040 3.10621 158 ft 4 kts 19°
2026-04-28 12:54 50.57025 3.10604 158 ft 1 kts 77°
2026-04-28 12:54 50.57025 3.10603 158 ft 0 kts 78°
2026-04-28 12:57 50.57026 3.10609 158 ft 2 kts 78°
2026-04-28 12:57 50.57026 3.10658 157 ft 7 kts 103°
2026-04-28 12:57 50.56970 3.10705 157 ft 12 kts 167°
2026-04-28 12:58 50.56888 3.10734 160 ft 11 kts 167°
2026-04-28 12:58 50.56828 3.10696 159 ft 10 kts 243°
2026-04-28 12:58 50.56813 3.10596 159 ft 9 kts 257°
2026-04-28 12:58 50.56801 3.10512 159 ft 7 kts 257°
2026-04-28 12:59 50.56792 3.10451 160 ft 4 kts 257°
2026-04-28 12:59 50.56783 3.10389 160 ft 8 kts 257°
2026-04-28 12:59 50.56767 3.10275 161 ft 12 kts 258°
2026-04-28 12:59 50.56750 3.10148 165 ft 11 kts 257°
2026-04-28 13:00 50.56732 3.10026 167 ft 12 kts 257°
2026-04-28 13:00 50.56711 3.09878 166 ft 16 kts 257°
2026-04-28 13:00 50.56688 3.09719 167 ft 14 kts 257°
2026-04-28 13:00 50.56669 3.09585 168 ft 12 kts 257°
2026-04-28 13:01 50.56651 3.09457 166 ft 12 kts 257°
2026-04-28 13:01 50.56633 3.09326 164 ft 12 kts 257°
2026-04-28 13:01 50.56614 3.09192 162 ft 13 kts 257°
2026-04-28 13:01 50.56580 3.09061 161 ft 13 kts 223°
2026-04-28 13:02 50.56546 3.09046 161 ft 0 kts 168°
2026-04-28 13:03 50.56518 3.09055 161 ft 7 kts 168°
2026-04-28 13:03 50.56465 3.09072 164 ft 9 kts 168°
2026-04-28 13:04 50.56411 3.09102 166 ft 7 kts 140°
2026-04-28 13:04 50.56411 3.09169 165 ft 8 kts 76°
2026-04-28 13:04 50.56414 3.09183 165 ft 0 kts 76°
2026-04-28 13:04 50.56426 3.09270 163 ft 37 kts 77°
2026-04-28 13:05 50.56536 3.10038 165 ft 103 kts 77°
2026-04-28 13:05 50.56729 3.11413 219 ft 147 kts 81°
2026-04-28 13:05 50.56865 3.13051 818 ft 156 kts 80°
2026-04-28 13:05 50.56931 3.14790 1492 ft 162 kts 84°
2026-04-28 13:06 50.56817 3.16594 2097 ft 179 kts 109°
2026-04-28 13:06 50.55885 3.18101 2423 ft 213 kts 144°
2026-04-28 13:06 50.54470 3.19196 2866 ft 240 kts 151°
2026-04-28 13:06 50.52888 3.20300 3533 ft 254 kts 151°
2026-04-28 13:07 50.51282 3.21508 4439 ft 259 kts 148°
2026-04-28 13:07 50.49600 3.22608 5231 ft 269 kts 165°
2026-04-28 13:07 50.47704 3.22703 6154 ft 275 kts 177°
2026-04-28 13:07 50.45776 3.22679 7059 ft 279 kts 176°
2026-04-28 13:08 50.43831 3.22718 7990 ft 280 kts 174°
2026-04-28 13:08 50.41885 3.22785 8938 ft 280 kts 174°
2026-04-28 13:08 50.39932 3.22867 9888 ft 281 kts 174°
2026-04-28 13:08 50.37959 3.22957 10555 ft 292 kts 175°
2026-04-28 13:09 50.35847 3.23057 10815 ft 316 kts 176°
2026-04-28 13:09 50.33594 3.23157 11267 ft 329 kts 176°
2026-04-28 13:09 50.31281 3.23248 11921 ft 335 kts 176°
2026-04-28 13:09 50.28939 3.23330 12712 ft 338 kts 176°
2026-04-28 13:10 50.26585 3.23408 13501 ft 340 kts 177°
2026-04-28 13:10 50.24245 3.23482 14243 ft 342 kts 177°
2026-04-28 13:10 50.21857 3.23559 14911 ft 344 kts 177°
2026-04-28 13:10 50.19453 3.23641 15577 ft 348 kts 178°
2026-04-28 13:11 50.17025 3.23725 16248 ft 350 kts 178°
2026-04-28 13:11 50.14579 3.23812 16889 ft 353 kts 178°
2026-04-28 13:11 50.12110 3.23903 17533 ft 356 kts 178°
2026-04-28 13:11 50.09627 3.23993 18199 ft 358 kts 178°
2026-04-28 13:12 50.07127 3.24082 18785 ft 361 kts 179°
2026-04-28 13:12 50.04610 3.24172 19303 ft 363 kts 179°
2026-04-28 13:12 50.02070 3.24263 19810 ft 367 kts 179°
2026-04-28 13:12 49.99516 3.24583 20312 ft 371 kts 171°
2026-04-28 13:13 49.96992 3.25505 20797 ft 375 kts 167°
2026-04-28 13:13 49.94452 3.26510 21295 ft 378 kts 167°
2026-04-28 13:13 49.91894 3.27512 21794 ft 380 kts 168°
2026-04-28 13:13 49.89315 3.28515 22246 ft 385 kts 168°
2026-04-28 13:14 49.86707 3.29525 22722 ft 388 kts 168°
2026-04-28 13:14 49.84064 3.30418 23185 ft 390 kts 174°
2026-04-28 13:14 49.81357 3.30612 23630 ft 390 kts 185°
2026-04-28 13:14 49.78667 3.30021 24013 ft 392 kts 195°
2026-04-28 13:15 49.76083 3.28677 24405 ft 393 kts 204°
2026-04-28 13:15 49.73564 3.27010 24802 ft 395 kts 204°
2026-04-28 13:15 49.71030 3.25340 25197 ft 397 kts 204°
2026-04-28 13:15 49.68484 3.23667 25614 ft 398 kts 205°
2026-04-28 13:16 49.65939 3.21994 26057 ft 398 kts 205°
2026-04-28 13:16 49.63389 3.20317 26461 ft 399 kts 205°
2026-04-28 13:16 49.60821 3.18630 26845 ft 401 kts 205°
2026-04-28 13:16 49.58277 3.16963 27223 ft 403 kts 205°
2026-04-28 13:17 49.55681 3.15266 27591 ft 405 kts 205°
2026-04-28 13:17 49.53081 3.13572 27979 ft 406 kts 205°
2026-04-28 13:17 49.50463 3.11889 28352 ft 409 kts 202°
2026-04-28 13:17 49.47717 3.10657 28663 ft 413 kts 194°
2026-04-28 13:18 49.44853 3.10095 29013 ft 416 kts 189°
2026-04-28 13:18 49.39163 3.09275 29075 ft 405 kts 189°
2026-04-28 13:19 49.33574 3.08455 29085 ft 403 kts 189°
2026-04-28 13:19 49.27992 3.07631 29082 ft 403 kts 189°
2026-04-28 13:20 49.22458 3.06830 29078 ft 401 kts 190°
2026-04-28 13:20 49.16898 3.06034 29077 ft 401 kts 190°
2026-04-28 13:21 49.11349 3.05249 29072 ft 400 kts 190°
2026-04-28 13:21 49.05803 3.04452 29058 ft 400 kts 190°
2026-04-28 13:22 49.00260 3.03642 29050 ft 400 kts 191°
2026-04-28 13:22 48.94716 3.02845 29054 ft 400 kts 191°
2026-04-28 13:23 48.89174 3.02046 29056 ft 400 kts 191°
2026-04-28 13:23 48.83723 3.00699 29048 ft 392 kts 202°
2026-04-28 13:24 48.78759 2.97419 29049 ft 389 kts 208°
2026-04-28 13:24 48.73841 2.94003 29043 ft 389 kts 208°
2026-04-28 13:25 48.68946 2.90628 29035 ft 389 kts 208°
2026-04-28 13:25 48.64022 2.87230 29036 ft 389 kts 208°
2026-04-28 13:26 48.59095 2.83838 29021 ft 389 kts 208°
2026-04-28 13:26 48.54164 2.80455 29061 ft 389 kts 208°
2026-04-28 13:27 48.49231 2.77077 29030 ft 389 kts 208°
2026-04-28 13:27 48.44299 2.73697 29031 ft 389 kts 208°
2026-04-28 13:28 48.39367 2.70323 29016 ft 389 kts 208°
2026-04-28 13:28 48.34437 2.66948 29021 ft 389 kts 208°
2026-04-28 13:29 48.29222 2.64617 29025 ft 401 kts 190°
2026-04-28 13:29 48.26409 2.64710 29023 ft 410 kts 178°
2026-04-28 13:29 48.23608 2.65751 29023 ft 421 kts 166°
2026-04-28 13:30 48.18263 2.69576 29002 ft 428 kts 160°
2026-04-28 13:30 48.13027 2.73861 29010 ft 429 kts 159°
2026-04-28 13:31 48.05084 2.79874 29017 ft 423 kts 165°
2026-04-28 13:31 47.99669 2.83310 29017 ft 423 kts 165°
2026-04-28 13:32 47.94251 2.86736 29011 ft 422 kts 165°
2026-04-28 13:32 47.88846 2.90158 29020 ft 422 kts 165°
2026-04-28 13:33 47.83450 2.93566 29020 ft 421 kts 165°
2026-04-28 13:33 47.78060 2.96974 28993 ft 421 kts 165°
2026-04-28 13:34 47.73591 2.99795 29006 ft 419 kts 165°
2026-04-28 13:34 47.68224 3.03172 29011 ft 419 kts 165°
2026-04-28 13:35 47.62863 3.06537 29012 ft 418 kts 165°
2026-04-28 13:35 47.60180 3.08219 28786 ft 419 kts 165°
2026-04-28 13:35 47.57496 3.09897 28517 ft 419 kts 165°
2026-04-28 13:36 47.54810 3.11571 28222 ft 418 kts 165°
2026-04-28 13:36 47.52131 3.13241 27951 ft 417 kts 165°
2026-04-28 13:36 47.49466 3.14902 27677 ft 416 kts 165°
2026-04-28 13:36 47.46801 3.16560 27417 ft 414 kts 165°
2026-04-28 13:37 47.44145 3.18207 27159 ft 413 kts 165°
2026-04-28 13:37 47.41499 3.19845 26975 ft 411 kts 165°
2026-04-28 13:37 47.38862 3.21478 27008 ft 412 kts 165°
2026-04-28 13:37 47.36218 3.23116 27007 ft 412 kts 165°
2026-04-28 13:38 47.33572 3.24754 26980 ft 412 kts 165°
2026-04-28 13:38 47.30924 3.26393 27008 ft 413 kts 165°
2026-04-28 13:38 47.28275 3.28031 27007 ft 413 kts 165°
2026-04-28 13:38 47.25624 3.29671 27008 ft 413 kts 165°
2026-04-28 13:39 47.22973 3.31309 26996 ft 414 kts 165°
2026-04-28 13:39 47.20312 3.32945 27008 ft 415 kts 165°
2026-04-28 13:39 47.17648 3.34580 27007 ft 415 kts 165°
2026-04-28 13:39 47.14981 3.36220 27013 ft 415 kts 165°
2026-04-28 13:40 47.12313 3.37855 26991 ft 416 kts 165°
2026-04-28 13:40 47.09642 3.39490 27021 ft 416 kts 164°
2026-04-28 13:40 47.06967 3.41129 27016 ft 417 kts 164°
2026-04-28 13:40 47.04293 3.42766 27022 ft 417 kts 165°
2026-04-28 13:41 47.01617 3.44402 27025 ft 417 kts 164°
2026-04-28 13:41 46.98945 3.46035 27013 ft 417 kts 165°
2026-04-28 13:41 46.96268 3.47666 27021 ft 416 kts 165°
2026-04-28 13:41 46.93593 3.49291 27023 ft 416 kts 165°
2026-04-28 13:42 46.90917 3.50915 26996 ft 416 kts 164°
2026-04-28 13:42 46.88246 3.52536 27013 ft 416 kts 164°
2026-04-28 13:42 46.85577 3.54158 27015 ft 415 kts 164°
2026-04-28 13:42 46.82906 3.55775 27013 ft 415 kts 164°
2026-04-28 13:43 46.80273 3.57365 27011 ft 415 kts 164°
2026-04-28 13:43 46.77604 3.58977 27012 ft 415 kts 164°
2026-04-28 13:43 46.74934 3.60591 26947 ft 416 kts 164°
2026-04-28 13:43 46.72271 3.62205 26383 ft 413 kts 164°
2026-04-28 13:44 46.69627 3.63797 25779 ft 409 kts 165°
2026-04-28 13:44 46.66992 3.65306 25195 ft 405 kts 166°
2026-04-28 13:44 46.64370 3.66744 24618 ft 401 kts 166°
2026-04-28 13:44 46.61764 3.68139 24056 ft 397 kts 166°
2026-04-28 13:45 46.59180 3.69513 23507 ft 394 kts 166°
2026-04-28 13:45 46.56625 3.70879 22927 ft 389 kts 166°
2026-04-28 13:45 46.54104 3.72241 22447 ft 383 kts 165°
2026-04-28 13:45 46.51624 3.73590 21955 ft 378 kts 165°
2026-04-28 13:46 46.49176 3.74926 21499 ft 373 kts 165°
2026-04-28 13:46 46.46760 3.76246 21077 ft 369 kts 165°
2026-04-28 13:46 46.44372 3.77559 20616 ft 366 kts 164°
2026-04-28 13:46 46.42005 3.78906 20151 ft 364 kts 163°
2026-04-28 13:47 46.39663 3.80274 19670 ft 362 kts 162°
2026-04-28 13:47 46.37423 3.81989 19198 ft 367 kts 150°
2026-04-28 13:47 46.35426 3.84342 18790 ft 379 kts 139°
2026-04-28 13:47 46.33712 3.87265 18482 ft 391 kts 130°
2026-04-28 13:48 46.32057 3.90393 18114 ft 392 kts 130°
2026-04-28 13:48 46.30404 3.93517 17763 ft 390 kts 130°
2026-04-28 13:48 46.28760 3.96623 17426 ft 387 kts 130°
2026-04-28 13:48 46.27133 3.99696 17072 ft 382 kts 130°
2026-04-28 13:49 46.25532 4.02714 16757 ft 376 kts 130°
2026-04-28 13:49 46.23943 4.05700 16432 ft 373 kts 130°
2026-04-28 13:49 46.22363 4.08656 16105 ft 371 kts 130°
2026-04-28 13:49 46.20787 4.11596 15780 ft 369 kts 130°
2026-04-28 13:50 46.19222 4.14522 15459 ft 367 kts 130°
2026-04-28 13:50 46.17668 4.17430 15134 ft 365 kts 129°
2026-04-28 13:50 46.16120 4.20325 14818 ft 363 kts 129°
2026-04-28 13:50 46.14580 4.23201 14499 ft 361 kts 129°
2026-04-28 13:51 46.13045 4.26060 14170 ft 360 kts 129°
2026-04-28 13:51 46.11517 4.28907 13865 ft 358 kts 129°
2026-04-28 13:51 46.09998 4.31737 13524 ft 356 kts 129°
2026-04-28 13:51 46.08487 4.34547 13223 ft 354 kts 129°
2026-04-28 13:52 46.06977 4.37348 12901 ft 353 kts 130°
2026-04-28 13:52 46.05476 4.40128 12599 ft 351 kts 130°
2026-04-28 13:52 46.03983 4.42891 12297 ft 349 kts 130°
2026-04-28 13:52 46.02519 4.45598 11986 ft 346 kts 130°
2026-04-28 13:53 46.01046 4.48327 11682 ft 344 kts 130°
2026-04-28 13:53 45.99636 4.51105 11390 ft 344 kts 124°
2026-04-28 13:53 45.98389 4.54029 11086 ft 342 kts 124°
2026-04-28 13:53 45.97147 4.56934 10783 ft 340 kts 125°
2026-04-28 13:54 45.95700 4.59553 10523 ft 329 kts 138°
2026-04-28 13:54 45.93955 4.61546 10407 ft 313 kts 151°
2026-04-28 13:54 45.92070 4.62953 10281 ft 299 kts 157°
2026-04-28 13:54 45.90232 4.64236 10140 ft 290 kts 157°
2026-04-28 13:55 45.88439 4.65493 9933 ft 283 kts 156°
2026-04-28 13:55 45.86667 4.66735 9805 ft 283 kts 156°
2026-04-28 13:55 45.84900 4.67974 9555 ft 282 kts 156°
2026-04-28 13:55 45.83140 4.69210 9311 ft 281 kts 156°
2026-04-28 13:56 45.81383 4.70444 9067 ft 281 kts 156°
2026-04-28 13:56 45.79630 4.71670 8818 ft 280 kts 156°
2026-04-28 13:56 45.77887 4.72881 8559 ft 277 kts 155°
2026-04-28 13:56 45.76165 4.74081 8337 ft 274 kts 155°
2026-04-28 13:57 45.74454 4.75278 8095 ft 274 kts 155°
2026-04-28 13:57 45.72741 4.76478 7834 ft 274 kts 155°
2026-04-28 13:57 45.71054 4.77657 7623 ft 273 kts 155°
2026-04-28 13:57 45.69343 4.78848 7382 ft 273 kts 155°
2026-04-28 13:58 45.67633 4.80035 7132 ft 272 kts 155°
2026-04-28 13:58 45.65930 4.81219 6904 ft 272 kts 154°
2026-04-28 13:58 45.64234 4.82398 6669 ft 271 kts 154°
2026-04-28 13:58 45.62541 4.83576 6426 ft 270 kts 154°
2026-04-28 13:59 45.60858 4.84757 6179 ft 270 kts 152°
2026-04-28 13:59 45.59345 4.86325 5934 ft 270 kts 136°
2026-04-28 13:59 45.58188 4.88426 5681 ft 270 kts 122°
2026-04-28 13:59 45.57219 4.90722 5458 ft 270 kts 122°
2026-04-28 14:00 45.56239 4.93017 5222 ft 270 kts 122°
2026-04-28 14:00 45.55257 4.95304 4985 ft 270 kts 122°
2026-04-28 14:00 45.54297 4.97543 4839 ft 258 kts 122°
2026-04-28 14:00 45.53381 4.99676 4693 ft 247 kts 122°
2026-04-28 14:01 45.52691 5.01868 4511 ft 239 kts 104°
2026-04-28 14:01 45.52514 5.04189 4261 ft 240 kts 86°
2026-04-28 14:01 45.52661 5.06533 4083 ft 234 kts 85°
2026-04-28 14:01 45.52821 5.08811 3962 ft 228 kts 81°
2026-04-28 14:02 45.53558 5.10736 3854 ft 223 kts 38°
2026-04-28 14:02 45.54966 5.11464 3673 ft 217 kts 358°
2026-04-28 14:02 45.56457 5.11289 3494 ft 214 kts 352°
2026-04-28 14:02 45.57906 5.11087 3389 ft 204 kts 353°
2026-04-28 14:03 45.59296 5.10911 3136 ft 196 kts 353°
2026-04-28 14:03 45.60608 5.10753 2905 ft 181 kts 351°
2026-04-28 14:03 45.61795 5.10610 2662 ft 163 kts 354°
2026-04-28 14:03 45.62889 5.10477 2458 ft 153 kts 353°
2026-04-28 14:04 45.63936 5.10349 2245 ft 149 kts 353°
2026-04-28 14:04 45.64966 5.10224 2055 ft 147 kts 352°
2026-04-28 14:04 45.65979 5.10101 1867 ft 145 kts 352°
2026-04-28 14:04 45.66979 5.09979 1682 ft 143 kts 353°
2026-04-28 14:05 45.67967 5.09859 1485 ft 143 kts 354°
2026-04-28 14:05 45.68948 5.09740 1290 ft 141 kts 352°
2026-04-28 14:05 45.69925 5.09621 1108 ft 141 kts 353°
2026-04-28 14:05 45.70909 5.09504 923 ft 143 kts 352°
2026-04-28 14:06 45.71888 5.09387 795 ft 135 kts 351°
2026-04-28 14:06 45.72600 5.09300 782 ft 61 kts 356°
2026-04-28 14:06 45.72809 5.09221 777 ft 25 kts 321°
2026-04-28 14:06 45.72947 5.09085 777 ft 9 kts 320°
2026-04-28 14:07 45.72949 5.09083 777 ft 0 kts 320°
2026-04-28 14:10 45.72959 5.09068 777 ft 5 kts 311°
2026-04-28 14:10 45.72968 5.09006 780 ft 7 kts 268°
2026-04-28 14:11 45.72964 5.08930 783 ft 8 kts 265°
2026-04-28 14:11 45.72958 5.08836 786 ft 11 kts 265°
2026-04-28 14:11 45.72950 5.08704 786 ft 15 kts 265°
2026-04-28 14:11 45.72940 5.08546 784 ft 15 kts 265°
2026-04-28 14:12 45.72923 5.08414 783 ft 14 kts 242°
2026-04-28 14:12 45.72836 5.08352 784 ft 15 kts 178°
2026-04-28 14:12 45.72731 5.08365 785 ft 15 kts 175°
2026-04-28 14:12 45.72623 5.08380 786 ft 16 kts 173°
2026-04-28 14:13 45.72515 5.08392 788 ft 15 kts 176°
2026-04-28 14:13 45.72412 5.08405 789 ft 15 kts 175°
2026-04-28 14:13 45.72307 5.08418 790 ft 12 kts 176°
2026-04-28 14:13 45.72259 5.08357 791 ft 10 kts 253°
2026-04-28 14:14 45.72250 5.08324 791 ft 4 kts 248°
2026-04-28 14:14 45.72239 5.08282 791 ft 5 kts 250°
2026-04-28 14:14 45.72223 5.08222 791 ft 7 kts 249°
2026-04-28 14:14 45.72219 5.08206 791 ft 0 kts 249°
2026-04-28 14:15 45.72218 5.08204 791 ft 0 kts 249°
2026-04-28 14:15 45.72218 5.08201 791 ft 2 kts 251°
2026-04-28 14:16 45.72214 5.08186 791 ft 0 kts 250°